Regional Weather Roundup
Issued by NWS

Home | Current Version | Previous Version | Graphics & Text | Print | Product List | Glossary On
Versions: 1 2 3 4 5 6 7 8 9 10 11 12 13 14 15 16 17 18 19 20 21 22 23 24 25 26 27 28 29 30 31 32 33 34 35 36 37 38 39 40 41 42 43 44 45 46 47 48 49 50
000
ASUS43 KDMX 242101
RWRIA

WEATHER ROUNDUP FOR IOWA
NATIONAL WEATHER SERVICE DES MOINES IA
300 PM CST TUE JAN 24 2017

NOTE: "FAIR" INDICATES FEW OR NO CLOUDS BELOW 12,000 FEET WITH NO
SIGNIFICANT WEATHER AND/OR OBSTRUCTIONS TO VISIBILITY.

* - THESE STATIONS ARE NOT NWS STATIONS...THUS NOT UNDER NWS
QUALITY CONTROL.  THEY ALSO DO NOT REPORT WEATHER SUCH
AS PRECIPITATION OR FOG.

IAZ001>003-012>014-020>022-031>034-043>046-242200-
   NORTHWEST IOWA

CITY           SKY/WX    TMP DP  RH WIND       PRES   REMARKS
CARROLL *      CLOUDY    32  32 100 E22       29.61S WCI  19
CHEROKEE *     LGT SNOW  31  31  99 NE13G18   29.63F VSB 3/4 WCI  21
DENISON *      CLOUDY    32  30  93 E17G25    29.58R WCI  21
LE MARS *      LGT SNOW  32  30  93 NE16G28   29.62F WCI  21
ORANGE CITY *  HVY SNOW  30  30 100 E10G18    29.64S VSB<1/4 WCI  21
SHELDON *      LGT SNOW  30  30 100 E20G25    29.65F VSB 1   WCI  18
SIOUX CITY     CLOUDY    33  29  85 E18G28    29.59F WCI  22
SPENCER        LGT SNOW  30  29  96 E18       29.68F VSB 3/4 WCI  18
STORM LAKE *   SNOW      30  28  93 E21       29.62F VSB 1/2 WCI  17
$$

IAZ055>058-069>071-079>083-090>094-242200-
   SOUTHWEST IOWA

CITY           SKY/WX    TMP DP  RH WIND       PRES   REMARKS
ATLANTIC *     CLOUDY    32  30  93 E18G25    29.52F WCI  20
AUDUBON *      CLOUDY    30  28  93 E20G29    29.58F FOG     WCI  18
CLARINDA *     MOSUNNY   39  34  81 E13G21    29.53R WCI  32
COUNCIL BLFS * CLOUDY    34  32  93 NE14      29.53S WCI  24
CRESTON *      CLOUDY    32  32 100 E21       29.57S WCI  20
HARLAN  *      CLOUDY    34  32  93 E18G29    29.56F WCI  23
LAMONI         MOSUNNY   39  31  72 E12G21    29.56R WCI  32
RED OAK *      MOSUNNY   36  32  87 E20       29.51R WCI  25
SHENANDOAH *   PTSUNNY   37  32  81 E14G22    29.52R WCI  29
$$

IAZ047>049-059>061-072>074-084-242200-
   CENTRAL IOWA

CITY           SKY/WX    TMP DP  RH WIND       PRES   REMARKS
AMES           CLOUDY    32  31  96 E15G23    29.64F FOG     WCI  22
ANKENY *       CLOUDY    32  30  93 E14G22    29.65F WCI  22
BOONE *        CLOUDY    32  32 100 E22G29    29.61F FOG     WCI  19
CHARITON *     CLOUDY    32  30  93 E23       29.57F WCI  19
DES MOINES     CLOUDY    33  30  88 E10G21    29.63F WCI  25
GRINNELL*      CLOUDY    32  31  96 E18G25    29.67F FOG     WCI  20
KNOXVILLE *    CLOUDY    34  30  86 E18G25    29.60F WCI  23
MARSHALLTOWN   CLOUDY    31  30  96 E21       29.67F FOG     WCI  18
NEWTON *       CLOUDY    32  30  93 E17       29.66F FOG     WCI  21
PELLA *        CLOUDY    32  31  95 MISG      29.66F FOG
PERRY *        CLOUDY    32  31  96 E20       29.63F FOG     WCI  20
$$

IAZ004>006-015-016-023>025-035-036-242200-
   NORTH CENTRAL IOWA

CITY           SKY/WX    TMP DP  RH WIND       PRES   REMARKS
ALGONA *       LGT SNOW  30  30 100 E15       29.71F WCI  19
CLARION *      FOG       30  32 100 E16       29.70F VSB 1/2 WCI  19
ESTHERVILLE    CLOUDY    29  29 100 E14       29.71F FOG     WCI  18
FORT DODGE *   CLOUDY    30  27  86 E17       29.68F WCI  18
MASON CITY     CLOUDY    31  28  89 E10       29.75F WCI  22
FOREST CITY *  CLOUDY    32  30  93 E8        29.74F WCI  25
WEBSTER CITY * SNOW      32 N/A N/A NE18      29.64F VSB 1/2 WCI  20
IOWA FALLS *   LGT SNOW  32  30  94 E12       29.73F VSB 1   WCI  23
$$

IAZ007>011-017>019-026>030-037>042-050>054-066-242200-
   NORTHEAST IOWA

CITY           SKY/WX    TMP DP  RH WIND       PRES   REMARKS
CEDAR RAPIDS   CLOUDY    32  30  92 E8        29.74F FOG     WCI  25
CHARLES CITY * CLOUDY    32  32 100 SE8       29.76F WCI  25
CLINTON *      CLOUDY    36  32  85 E6        29.81F WCI  31
DECORAH *      CLOUDY    32  30  93 SE3       29.77S
DUBUQUE        CLOUDY    33  30  88 SE7       29.78F WCI  27
MONTICELLO *   MIX PCPN  34  32  93 E8        29.78F WCI  27
OELWEIN *      CLOUDY    32  32 100 SE12      29.77F FOG     WCI  23
WATERLOO       LGT SNOW  32  29  88 E12       29.76F FOG     WCI  23
$$

IAZ064-065-067-068-078-242200-
   EAST CENTRAL IOWA

CITY           SKY/WX    TMP DP  RH WIND       PRES   REMARKS
DAVENPORT      CLOUDY    36  32  85 SE10      29.79F WCI  28
IOWA CITY      CLOUDY    36  31  82 E12       29.76F WCI  28
MUSCATINE *    CLOUDY    37  32  81 E10       29.77F WCI  30
QUAD CITIES    CLOUDY    37  32  82 SE9       29.79F WCI  30
$$

IAZ062-063-075>077-085>089-095>099-242200-
   SOUTHEAST IOWA

CITY           SKY/WX    TMP DP  RH WIND       PRES   REMARKS
BURLINGTON     CLOUDY    39  33  79 SE14      29.74F WCI  31
FAIRFIELD *    CLOUDY    36  32  87 E15       29.70F WCI  26
FORT MADISON * CLOUDY    39  37  93 E14       29.72F WCI  31
KEOKUK *       PTSUNNY   41 N/A N/A E17       29.70F
OSKALOOSA *    CLOUDY    32  31  94 E16       29.67F FOG     WCI  21
CENTERVILLE *  PTSUNNY   36  34  93 E20       29.59F WCI  25
OTTUMWA        CLOUDY    34  30  85 E18       29.65F WCI  23
WASHINGTON *   CLOUDY    36  34  93 E15       29.73F WCI  26
$$

ABBREVIATIONS USED IN REMARKS
   TC - TEMPERATURES IN CELSIUS
  WCI - WIND CHILL INDEX
   HX - HEAT INDEX
  VSB - VISIBILITY
$$




USA.gov is the U.S. government's official web portal to all federal, state and local government web resources and services.